Regional Weather Roundup
Issued by NWS Cleveland, OH

Home | Current Version | Previous Version | Graphics & Text | Print | Product List | Glossary On
Versions: 1 2 3 4 5 6 7 8 9 10 11 12 13 14 15 16 17 18 19 20 21 22 23 24 25 26 27 28 29 30 31 32 33 34 35 36 37 38 39 40 41 42 43 44 45 46 47 48 49 50
000
ASUS41 KCLE 261312
RWRCLE
OHIO REGIONAL WEATHER ROUNDUP
NATIONAL WEATHER SERVICE WILMINGTON, OH
900 AM EDT FRI MAY 26 2017

NOTE: "FAIR" INDICATES FEW OR NO CLOUDS BELOW 12,000 FEET WITH NO
SIGNIFICANT WEATHER AND/OR OBSTRUCTIONS TO VISIBILITY.

OHZ001>008-015>018-024>027-034-035-043-044-261400-
   NORTHWEST OHIO

CITY           SKY/WX    TMP DP  RH WIND       PRES   REMARKS
DEFIANCE       CLOUDY    54  52  93 NW7       29.88R
FINDLAY        CLOUDY    56  52  86 W9        29.85R FOG
TOLEDO EXPRESS CLOUDY    57  53  86 NW12      29.84R
TOLEDO EXEC    CLOUDY    58  55  90 W9        29.84R
LIMA           CLOUDY    55  54  96 W10       29.87R
$$

OHZ009>014-019>023-028>033-038-089-261400-
   NORTHEAST OHIO

CITY           SKY/WX    TMP DP  RH WIND       PRES   REMARKS
CLE-HOPKINS    CLOUDY    59  52  77 NW14      29.82R
CLE-LAKEFRONT  CLOUDY    57  51  80 NW16      29.79R
CUY CO. ARPT   CLOUDY    57  55  94 NW12G21   29.80R
LORAIN-ELYRIA  CLOUDY    57  51  80 N8        29.82R
ASHTABULA      LGT RAIN  54  54 100 NW6       29.78R FOG
AKRON-CANTON   LGT RAIN  57  53  86 NW9       29.80R FOG
WOOSTER        CLOUDY    58  54  86 W13       29.82R
MANSFIELD      CLOUDY    56  55  97 W8        29.84R
YOUNGSTOWN     LGT RAIN  55  53  93 W9        29.78R FOG
$$

OHZ042-051>053-060>062-070>072-077>081-261400-
  SOUTHWEST OHIO

CITY           SKY/WX    TMP DP  RH WIND       PRES   REMARKS
CINC-COVINGTON PTSUNNY   61  56  83 SW7       29.93R
CINC-LUNKEN    FAIR      63  58  83 W6        29.93R
HAMILTON       FAIR      61  57  87 W8        29.93R
DAYTON         FAIR      62  53  72 W14       29.90R
WRIGHT-PAT AFB FAIR      63  55  73 W7        29.89R
DAYTON GENERAL FAIR      61  55  81 W8        29.90R
WILMINGTON     FAIR      61  57  87 W12       29.90R
$$

OHZ036-037-039>041-045>050-054>059-063>069-073>076-082>088-261400-
  CENTRAL AND SOUTHEAST OHIO

CITY           SKY/WX    TMP DP  RH WIND       PRES   REMARKS
COLUMBUS       FAIR      61  55  81 W12       29.86R
OSU AIRPORT    FAIR      61  55  81 W12       29.86R
BOLTON FIELD   SUNNY     61  55  82 W9        29.87R
RICKENBACK AFB FAIR      61  55  82 NW9       29.86S
NEWARK         CLOUDY    60  54  80 W10       29.86R
MARION         CLOUDY    57  53  86 W8        29.86R
LANCASTER      FAIR      63  54  72 W8G17     29.87R
ZANESVILLE     CLOUDY    60  53  77 W13       29.85R
NEW PHILLY     CLOUDY    60  56  86 W12       29.82R
$$




USA.gov is the U.S. government's official web portal to all federal, state and local government web resources and services.